Content
SEND FEEDBACK

Daily
Averages
Monthly
Summary
United States of America

ROCKLIN, CALIFORNIA


Home > North America > United States > California
Elevation: 275 feet     Latitude: 38 48N     Longitude: 121 14W

WEATHER
 
SELECT A DAY
Number of Records: 143,890;   Date Range: 12/3/08 - 10/24/14
 
SHARE

PRINT THIS DATA

[ ← Previous Day ]
WEATHER ALMANAC - FEBRUARY 5, 2013
[ Next Day → ]
[ °C ]   °F
Weather ElementAverageHighLow
Temperature45.3 °F55.4 °F (3:15 pm)35.6 °F (11:15 pm)
Dewpoint40.2 °F42.8 °F (4:15 am)35.6 °F (12:35 am)
Humidity83.4 %100 % (12:55 am)62 % (3:35 pm)
Barometer30.07 in30.13 in (11:55 pm)30.03 in (2:35 pm)
Wind Speed6.6 mph11.5 mph (8:55 am)
Weather ElementAverage
Visibility9.7 mi
Wind DirectionESE (125.2 °)

Weather ElementTotal
Precipitation---
Heating Degree Days19.5 (Base 65)
Averaged from 69 records on February 5, 2013
WEATHER CONDITIONS BREAKOUT
WIND DIRECTION BREAKOUT
WEATHER BY HOUR - FEBRUARY 5, 2013
[ °C ]   °F
Local TimeTemperatureDewpointHumidityBarometerVisibilityWind DirectionWind SpeedGust SpeedPrecipitationEventsConditions
12:35 AM37.4 °F35.6 °F93 %30.06 in7.0 miCalmClear
12:55 AM37.4 °F37.4 °F100 %30.06 in10.0 miEast (90°)3.5 mphClear
1:15 AM41.0 °F41.0 °F100 %30.06 in10.0 miESE (110°)3.5 mphClear
1:35 AM37.4 °F35.6 °F93 %30.07 in10.0 miEast (90°)3.5 mphClear
1:55 AM37.4 °F35.6 °F93 %30.07 in10.0 miEast (100°)4.6 mphClear
2:15 AM37.4 °F35.6 °F93 %30.07 in10.0 miEast (100°)5.8 mphClear
2:35 AM39.2 °F37.4 °F93 %30.06 in10.0 miEast (100°)4.6 mphClear
2:55 AM37.4 °F35.6 °F93 %30.06 in10.0 miEast (100°)4.6 mphClear
3:15 AM41.0 °F39.2 °F93 %30.06 in10.0 miSE (140°)4.6 mphClear
3:35 AM39.2 °F37.4 °F93 %30.06 in10.0 miSSE (150°)5.8 mphClear
3:55 AM37.4 °F35.6 °F93 %30.05 in10.0 miSSE (150°)9.2 mphClear
4:15 AM42.8 °F42.8 °F100 %30.04 in10.0 miSE (140°)8.1 mphClear
4:35 AM41.0 °F39.2 °F93 %30.05 in10.0 miSSE (160°)3.5 mphClear
4:55 AM41.0 °F41.0 °F100 %30.04 in10.0 miSouth (170°)5.8 mphClear
5:15 AM41.0 °F39.2 °F93 %30.05 in7.0 miSouth (170°)6.9 mphClear
5:35 AM41.0 °F41.0 °F100 %30.04 in7.0 miSSE (160°)9.2 mphClear
5:55 AM41.0 °F41.0 °F100 %30.05 in7.0 miSSE (150°)8.1 mphClear
6:15 AM42.8 °F41.0 °F93 %30.05 in10.0 miSE (130°)6.9 mphClear
6:35 AM42.8 °F41.0 °F93 %30.05 in10.0 miESE (120°)8.1 mphClear
6:55 AM42.8 °F41.0 °F93 %30.06 in10.0 miSE (130°)5.8 mphClear
7:15 AM41.0 °F39.2 °F93 %30.06 in10.0 miSE (130°)5.8 mphClear
7:35 AM42.8 °F41.0 °F93 %30.06 in10.0 miESE (120°)6.9 mphClear
7:55 AM42.8 °F41.0 °F93 %30.07 in10.0 miESE (120°)6.9 mphClear
8:15 AM44.6 °F41.0 °F87 %30.07 in10.0 miSE (130°)9.2 mphClear
8:35 AM44.6 °F41.0 °F87 %30.08 in10.0 miSE (140°)9.2 mphClear
8:55 AM46.4 °F41.0 °F81 %30.07 in10.0 miSE (140°)11.5 mphClear
9:15 AM46.4 °F42.8 °F87 %30.09 in10.0 miSE (140°)10.4 mphClear
9:35 AM48.2 °F42.8 °F82 %30.09 in10.0 miSSE (160°)11.5 mphClear
9:55 AM48.2 °F42.8 °F82 %30.09 in10.0 miSSE (150°)10.4 mphClear
10:15 AM48.2 °F42.8 °F82 %30.09 in10.0 miSSE (160°)11.5 mphClear
10:35 AM50.0 °F42.8 °F76 %30.09 in10.0 miSSE (160°)10.4 mphClear
10:55 AM50.0 °F42.8 °F76 %30.10 in10.0 miSSE (150°)10.4 mphClear
11:15 AM51.8 °F42.8 °F71 %30.09 in10.0 miSSE (150°)10.4 mphClear
11:35 AM51.8 °F42.8 °F71 %30.09 in10.0 miSSE (150°)10.4 mphClear
11:55 AM51.8 °F42.8 °F71 %30.08 in10.0 miSouth (170°)9.2 mphClear
12:15 PM51.8 °F42.8 °F71 %30.07 in10.0 miSouth (180°)8.1 mphClear
12:35 PM51.8 °F42.8 °F71 %30.06 in10.0 miSouth (190°)8.1 mphClear
12:55 PM51.8 °F42.8 °F71 %30.05 in10.0 miSouth (170°)8.1 mphClear
1:15 PM53.6 °F42.8 °F67 %30.05 in10.0 miSouth (180°)9.2 mphClear
1:35 PM53.6 °F42.8 °F67 %30.04 in10.0 miSouth (190°)6.9 mphScattered Clouds
1:55 PM53.6 °F42.8 °F67 %30.05 in10.0 miSouth (170°)5.8 mphMostly Cloudy
2:15 PM53.6 °F42.8 °F67 %30.05 in10.0 miSouth (180°)6.9 mphOvercast
2:35 PM53.6 °F42.8 °F67 %30.03 in10.0 miSE (130°)8.1 mphOvercast
2:55 PM53.6 °F42.8 °F67 %30.03 in10.0 miSSE (150°)8.1 mphScattered Clouds
3:15 PM55.4 °F42.8 °F63 %30.04 in10.0 miSouth (180°)9.2 mphScattered Clouds
3:35 PM53.6 °F41.0 °F62 %30.04 in10.0 miSouth (170°)4.6 mphScattered Clouds
3:55 PM55.4 °F42.8 °F63 %30.04 in10.0 miSouth (170°)6.9 mphClear
4:15 PM53.6 °F41.0 °F62 %30.05 in10.0 miSouth (180°)6.9 mphClear
4:35 PM53.6 °F41.0 °F62 %30.05 in10.0 miSSE (160°)8.1 mphClear
4:55 PM53.6 °F41.0 °F62 %30.05 in10.0 miSSE (160°)6.9 mphClear
5:15 PM51.8 °F41.0 °F67 %30.05 in10.0 miSSE (150°)6.9 mphClear
5:35 PM50.0 °F41.0 °F71 %30.05 in10.0 miSE (130°)5.8 mphClear
6:15 PM50.0 °F41.0 °F71 %30.06 in10.0 miESE (110°)4.6 mphClear
6:35 PM50.0 °F41.0 °F71 %30.06 in10.0 miESE (120°)5.8 mphClear
6:55 PM46.4 °F41.0 °F81 %30.07 in10.0 miEast (100°)4.6 mphClear
7:15 PM44.6 °F39.2 °F81 %30.07 in10.0 miEast (100°)5.8 mphClear
7:35 PM42.8 °F39.2 °F87 %30.07 in10.0 miEast (90°)6.9 mphClear
7:55 PM42.8 °F41.0 °F93 %30.08 in10.0 miEast (90°)5.8 mphClear
8:15 PM42.8 °F39.2 °F87 %30.08 in10.0 miEast (80°)4.6 mphClear
8:35 PM42.8 °F39.2 °F87 %30.09 in10.0 miEast (80°)4.6 mphClear
8:55 PM41.0 °F37.4 °F87 %30.09 in10.0 miEast (80°)4.6 mphClear
9:15 PM41.0 °F37.4 °F87 %30.09 in10.0 miENE (70°)5.8 mphClear
9:35 PM41.0 °F39.2 °F93 %30.10 in10.0 miNE (50°)4.6 mphClear
9:55 PM39.2 °F37.4 °F93 %30.10 in10.0 miNNE (30°)3.5 mphClear
10:15 PM37.4 °F35.6 °F93 %30.10 in10.0 miNE (50°)4.6 mphClear
10:35 PM39.2 °F37.4 °F93 %30.11 in10.0 miENE (70°)5.8 mphClear
10:55 PM37.4 °F37.4 °F100 %30.11 in10.0 miNE (50°)5.8 mphClear
11:15 PM35.6 °F35.6 °F100 %30.11 in7.0 miCalmClear
11:55 PM37.4 °F35.6 °F93 %30.13 in7.0 miCalmMostly Cloudy
Hourly data recorded from KLHM, located miles away from Rocklin, California







STORIES FROM OUR PARTNERS